SCP
-0 -0 -0 -0 -0 -0 0 0 0 0 -0 0 -0 -0 0 0 1 2 2 4 5 3 1 0 0 0 0 0 0 0 0 0 0 0 0 0 0 0 0 0 0 0 0 0
-0 0 0 -0 -0 -0 -0 -0 -0 0 -0 0 0 0 0 0 1 3 3 4 2 0 0 0 0 0 0 0 0 0 0 0 0 0 0 0 0 0 0 0 0 0 0 0
0 -0 -0 0 0 0 -0 0 -0 0 0 0 0 0 0 0 0 3 2 1 0 0 0 0 0 0 0 0 0 0 0 0 0 0 0 0 0 0 0 0 0 0 0 0
0 0 0 0 -0 -0 0 0 -0 0 -0 0 0 0 -0 -0 0 0 0 0 0 0 0 0 0 0 0 0 0 0 0 0 0 0 0 0 0 0 0 0 0 0 0 0
0 0 0 0 0 0 0 0 -0 -0 0 0 0 0 0 0 0 0 0 0 0 0 0 0 0 0 0 0 0 0 0 0 0 0 0 0 0 0 0 0 0 0 0 0
0 0 0 0 0 0 0 0 0 -0 -0 -0 0 0 0 0 0 0 0 0 0 0 0 0 0 0 0 0 0 0 0 0 0 0 0 0 0 0 0 0 0 0 0 0
0 0 0 0 -0 0 0 0 -0 -0 -0 -0 0 0 0 0 0 0 0 0 0 0 0 0 0 0 0 0 0 0 0 0 0 0 0 0 0 0 0 0 0 0 0 0
0 0 0 -0 0 0 0 0 -0 0 -0 -0 0 0 0 0 0 0 0 0 0 0 0 0 0 0 0 0 0 0 0 0 0 0 0 0 0 0 0 0 0 0 0 0
0 0 0 0 0 0 -0 -0 -0 0 0 0 0 0 0 0 0 0 0 0 0 0 0 0 0 0 0 0 0 0 0 0 0 0 0 0 0 0 0 0 0 0 0 0
0 0 0 0 0 0 0 0 0 0 0 0 0 0 0 0 0 0 0 0 0 0 0 0 0 0 0 0 0 0 0 0 0 0 0 0 0 0 0 0 0 0 0 0
0 0 0 0 0 0 0 0 -0 0 0 0 0 0 0 0 0 0 0 0 0 0 0 0 0 0 0 0 0 0 0 0 0 0 0 0 0 0 0 0 0 0 0 0
0 0 0 0 0 0 0 0 0 -0 -0 0 0 -0 -0 0 0 0 0 0 0 0 0 0 0 0 0 0 0 0 0 0 -0 0 0 0 0 0 0 0 0 0 0 0
0 0 0 0 0 0 0 0 0 -0 -0 -0 -0 -0 -0 -0 -0 -0 -0 -0 -0 -0 -0 0 -0 0 0 0 0 0 0 0 -0 0 0 0 0 0 0 0 0 0 0 0
0 0 0 0 0 0 0 0 0 -0 -0 -0 -0 -0 -0 -0 -0 -0 0 0 0 -0 -0 0 0 0 0 0 0 0 0 -0 -0 -0 -0 -0 -0 0 0 0 0 0 0 0
0 0 0 0 0 0 0 0 -0 -0 -0 -0 -0 -0 -0 -0 0 -0 0 -0 -0 0 0 0 0 0 0 0 -0 0 0 0 -0 -0 -0 -0 -0 -0 0 0 0 0 0 0
0 0 0 0 0 0 0 0 -0 -0 0 0 0 0 0 0 0 0 0 0 0 0 0 0 0 0 0 0 0 0 0 0 0 0 0 0 0 -0 -0 0 0 0 0 0
0 0 0 0 0 0 -0 -0 0 0 0 0 0 0 0 0 0 0 0 0 0 0 0 0 0 0 0 0 0 0 0 0 0 0 0 0 0 -0 0 0 0 0 0 0
0 -0 -0 0 0 0 0 0 0 0 0 0 0 0 0 0 0 0 0 -0 -0 -0 -0 0 0 0 0 0 0 0 0 0 0 0 0 0 0 0 0 0 0 0 0 0
0 0 0 0 0 0 0 0 0 0 0 0 0 0 0 0 -0 0 -0 -0 -0 -0 0 0 0 0 0 0 0 0 0 0 0 0 0 0 0 0 0 0 0 0 0 0
0 0 0 0 0 0 0 0 0 0 0 0 -0 -0 -0 -0 -0 -0 -0 -0 0 0 0 0 0 0 0 0 0 0 0 0 0 0 0 0 0 0 0 0 0 0 0 0
0 0 0 0 0 0 0 0 0 0 0 -0 -0 -0 -0 -0 -0 -0 0 0 0 0 0 0 0 0 0 0 0 0 0 0 0 0 0 0 0 0 0 0 0 0 0 0
0 0 0 0 0 0 0 0 0 0 -0 -0 -0 -0 -0 0 0 0 0 0 0 0 0 0 0 0 0 0 0 0 0 0 0 0 0 0 0 0 0 0 0 0 0 0
0 0 0 0 0 0 0 0 0 -0 -0 -0 -0 -0 0 -0 -0 0 0 0 0 0 0 0 0 0 0 0 0 0 0 0 0 0 0 0 0 0 0 0 0 0 0 0
0 0 0 0 0 0 0 0 -0 0 0 0 0 0 0 0 0 0 0 0 0 0 0 0 0 0 0 0 0 0 0 0 0 0 0 0 0 0 0 0 0 0 0 0
0 0 0 0 0 0 0 0 0 0 0 -0 0 0 0 0 0 0 0 0 0 0 0 0 0 0 0 0 0 0 0 0 -0 0 0 0 0 0 0 0 0 0 0 0
0 0 0 0 0 0 0 0 0 0 0 0 0 0 0 0 0 0 0 0 0 0 0 0 0 0 0 0 0 0 0 0 0 0 0 0 0 0 0 0 0 0 0 0
0 0 0 0 0 0 0 0 0 0 0 0 0 0 0 0 0 0 0 0 0 0 0 0 0 0 0 0 0 0 0 0 0 0 0 0 0 0 0 0 0 0 0 0
Wind_Speed_500mb
31 40 36 40 43 43 36 18 27 27 22 9 7 13 13 33 43 70 80 83 93 95 94 105 112 106 96 87 76 67 65 66 70 67 63 57 50 44 37 30 22 17 14 11
33 36 33 33 32 32 36 20 29 7 10 10 5 24 19 35 60 67 79 79 89 96 107 108 107 102 90 80 73 76 82 82 76 69 60 53 46 38 30 23 20 14 9 8
9 25 34 14 13 19 13 8 19 19 10 11 4 12 5 11 39 73 84 93 99 106 110 106 108 100 92 87 88 88 84 79 72 63 55 46 38 33 26 21 14 8 4 8
11 18 7 12 34 16 15 2 13 17 15 14 9 24 14 31 57 66 98 101 104 114 117 111 107 98 97 97 92 88 80 72 62 54 47 40 34 26 19 13 8 5 8 15
6 10 14 13 31 17 18 10 10 27 26 17 37 54 49 55 90 126 109 105 117 124 123 116 108 106 105 96 87 78 70 62 52 42 38 32 27 23 19 16 18 16 17 21
5 8 8 9 26 38 24 8 19 33 31 21 25 31 29 34 105 114 106 108 117 123 120 115 110 103 97 88 80 73 62 52 42 35 34 33 29 27 30 25 22 17 17 25
8 7 11 6 40 44 6 1 22 48 46 42 27 26 74 88 100 108 127 128 121 115 110 102 94 90 88 78 71 61 53 48 43 38 35 33 34 34 30 27 18 16 19 29
8 7 9 57 34 8 1 35 51 52 65 72 53 61 88 101 104 116 121 118 110 107 100 89 82 82 80 73 61 53 50 50 45 40 36 28 22 29 21 22 16 15 18 27
8 4 29 32 38 43 71 61 58 65 65 81 61 56 97 94 97 104 105 103 97 97 88 75 69 64 69 65 58 55 52 49 41 33 26 23 23 25 22 19 17 13 16 23
7 13 33 43 53 61 77 69 63 70 72 82 72 72 84 97 95 96 91 90 85 82 76 66 57 59 64 58 53 52 54 47 38 36 37 35 30 24 23 21 19 22 24 28
8 16 18 53 44 57 75 81 82 69 72 69 83 73 74 92 91 84 84 80 78 77 73 67 61 61 57 54 50 50 49 47 45 42 40 44 45 41 35 36 29 28 31 31
5 23 9 24 35 46 76 70 75 88 82 77 84 78 91 85 83 83 81 79 77 74 71 66 64 60 55 48 44 47 48 44 41 42 43 41 41 46 43 39 39 41 41 34
9 30 41 43 45 52 75 70 71 83 84 88 79 85 86 87 82 78 74 71 70 67 63 60 55 49 43 39 36 38 43 41 38 37 38 39 39 39 43 38 35 36 36 36
11 20 41 29 40 61 74 75 84 86 85 85 84 82 84 83 74 71 67 64 62 60 56 53 50 48 41 34 44 47 43 37 31 34 36 35 31 34 35 34 32 33 31 29
48 52 53 63 68 67 78 82 82 77 75 73 70 74 72 70 68 66 58 50 47 44 43 44 47 47 39 38 37 40 41 38 34 34 31 27 26 28 30 32 30 26 23 24
49 55 59 66 67 73 77 74 71 64 69 69 60 55 59 60 59 56 52 48 48 47 43 46 43 37 32 30 31 34 34 31 28 27 29 27 25 27 27 27 28 24 20 21
46 48 55 55 54 49 49 50 58 58 60 61 63 62 60 59 58 54 49 44 46 46 43 40 39 32 23 26 38 40 37 33 28 25 24 24 22 23 23 24 25 22 19 16
44 50 50 44 48 53 54 62 63 64 61 59 56 53 53 50 53 49 45 44 47 47 39 40 44 42 39 34 33 31 28 26 24 25 26 25 25 23 21 21 20 15 13 11
23 23 28 35 41 48 52 55 53 52 50 47 45 42 38 39 40 40 39 38 42 44 40 31 30 33 32 27 21 26 35 34 30 30 27 22 23 22 17 12 8 6 5 7
48 43 39 38 37 44 49 45 43 40 36 32 34 37 37 33 31 32 32 37 34 36 31 31 35 32 33 31 29 29 30 28 27 31 28 23 20 17 13 10 5 3 4 7
38 37 38 39 42 43 38 37 35 35 30 28 36 37 35 30 23 31 41 44 38 39 41 35 34 32 25 24 19 20 24 24 23 23 21 18 14 13 10 7 3 2 5 7
31 35 37 37 36 36 32 28 27 32 36 35 32 31 26 23 24 31 33 41 42 42 40 35 31 28 25 18 13 13 14 16 17 17 15 12 10 10 12 10 6 5 7 8
39 39 34 33 32 31 30 29 30 31 34 31 29 23 21 20 15 30 40 31 27 30 30 29 24 20 13 12 13 15 15 16 15 14 13 10 9 6 5 9 7 8 10 9
33 27 24 28 33 35 35 32 30 26 24 23 22 19 15 18 17 21 21 23 19 16 32 35 25 17 18 17 18 19 18 14 14 13 14 12 10 11 16 11 6 5 8 9
30 30 28 34 33 30 29 29 28 29 29 30 23 19 8 4 3 15 17 18 17 18 38 34 28 22 17 15 11 8 8 9 7 7 8 9 7 11 19 22 23 15 9 11
38 34 33 34 33 31 30 30 30 32 33 30 28 21 21 13 6 15 20 20 21 23 37 36 28 24 18 18 16 9 3 2 2 4 2 3 9 15 18 22 25 27 22 22
27 28 34 37 34 29 30 33 32 32 32 34 30 21 15 9 7 14 19 21 21 26 38 41 31 27 19 14 15 12 9 3 2 3 5 4 9 15 19 23 28 34 36 37
Wind_Direction_500mb
256 266 272 271 274 279 273 226 195 221 227 212 222 284 299 328 183 155 150 151 140 142 135 131 137 144 146 145 148 154 154 151 144 148 151 152 156 160 162 169 174 190 203 220
296 275 267 290 285 275 271 209 226 164 212 127 294 8 330 325 173 152 146 141 136 128 120 124 131 135 140 141 145 148 141 141 144 148 149 153 156 159 170 175 181 191 217 279
264 324 310 273 286 255 219 221 198 205 180 167 77 318 269 335 291 144 132 127 122 119 119 121 130 137 138 142 141 142 139 141 144 148 151 155 160 168 173 178 190 216 266 322
291 305 323 334 326 173 127 91 170 78 100 91 157 214 217 231 225 141 122 119 116 115 119 125 133 136 137 140 141 139 140 143 145 149 150 155 166 170 168 164 148 84 39 35
291 304 277 338 8 27 55 47 32 117 94 63 114 104 51 68 133 109 114 115 116 122 129 133 135 138 140 138 138 139 140 139 141 145 147 152 151 143 123 108 95 88 69 48
312 297 340 348 348 338 321 39 111 106 103 72 116 94 89 109 93 99 106 108 113 121 128 132 136 140 135 135 136 135 135 131 130 133 135 133 129 121 111 105 98 87 63 54
250 266 280 312 337 318 77 2 103 85 89 79 76 91 109 102 94 100 108 115 120 123 127 132 137 135 131 132 126 127 127 127 130 132 135 140 138 128 122 114 102 84 62 40
321 334 360 328 322 47 90 91 93 95 96 87 73 95 97 95 98 104 112 122 125 126 127 131 133 130 128 123 124 127 128 124 122 122 121 123 128 139 135 127 128 110 48 29
9 309 292 19 57 73 100 95 94 92 86 95 87 87 90 92 98 107 114 118 123 122 124 126 128 127 123 124 130 127 123 115 113 114 127 130 137 126 121 118 121 86 43 61
307 8 9 28 62 77 90 88 91 105 107 110 95 90 93 101 102 106 112 117 120 122 118 119 121 120 121 127 124 121 116 108 103 106 113 115 122 125 122 116 108 95 90 84
350 350 354 28 49 86 94 103 99 91 95 99 101 98 101 106 109 111 112 117 119 117 116 115 115 117 121 122 122 120 115 108 102 102 104 107 104 101 103 103 95 93 91 86
13 346 38 32 57 87 96 98 103 109 102 97 103 102 108 108 112 113 114 117 115 114 114 115 115 115 118 121 121 120 115 108 106 104 99 96 95 96 89 91 89 83 80 78
39 57 75 79 87 94 103 104 102 104 107 109 104 108 112 113 114 114 114 116 116 116 119 122 122 119 125 136 147 128 122 117 109 106 101 96 92 87 84 87 93 88 78 71
52 66 70 89 94 105 111 109 114 112 113 113 113 111 110 111 114 115 114 116 122 124 124 126 130 131 134 139 130 130 122 115 111 110 107 104 100 90 78 76 97 85 75 66
83 94 98 106 106 104 111 116 110 106 110 111 112 111 111 110 113 116 122 129 130 129 128 135 131 127 135 138 135 129 123 121 117 113 109 106 102 92 80 74 94 89 84 67
93 99 100 98 99 105 107 103 101 104 106 107 108 115 121 122 119 119 120 121 119 116 119 122 123 126 138 149 148 140 131 129 128 123 117 113 107 103 92 83 88 88 84 73
100 98 101 98 101 105 109 112 116 120 127 129 126 128 129 128 126 125 124 124 121 117 114 127 134 136 135 127 129 127 130 132 131 129 126 119 113 106 100 95 93 86 81 63
117 114 104 96 109 110 113 121 128 132 130 131 134 135 133 133 129 129 131 131 123 117 113 115 116 129 134 138 137 140 141 138 132 122 126 125 124 120 115 114 113 97 86 56
146 123 121 121 126 127 129 131 131 133 137 141 140 137 141 140 141 141 143 144 139 130 124 132 128 127 127 128 127 127 134 144 142 129 123 136 130 125 125 123 114 91 71 27
128 131 130 126 126 128 130 133 138 138 139 145 141 139 139 142 148 152 157 151 151 143 145 150 144 139 136 136 135 134 140 141 136 141 139 137 144 147 137 126 108 46 356 6
129 132 130 131 133 136 140 145 146 141 137 137 139 137 131 122 122 142 144 142 139 145 147 148 149 145 148 154 162 157 163 163 161 157 158 159 164 171 185 183 192 303 321 327
142 136 134 138 141 143 150 149 146 139 138 141 138 138 133 126 128 136 137 137 140 154 154 155 154 154 157 164 176 186 181 184 187 189 195 196 209 219 228 235 255 279 280 297
144 147 147 153 153 148 148 148 148 149 154 153 150 150 135 110 114 153 149 147 142 145 158 169 171 172 154 140 163 175 176 175 182 183 182 183 165 168 246 255 275 259 245 282
155 153 146 148 149 152 153 158 161 162 158 160 164 158 132 134 124 158 164 145 148 161 163 163 163 151 133 114 110 116 105 113 129 122 126 108 87 63 44 40 352 266 265 286
170 166 157 157 158 159 158 164 164 164 156 155 175 183 191 176 219 178 180 170 161 161 168 168 167 182 190 181 150 110 64 37 101 85 92 57 55 41 27 24 22 10 333 330
172 171 164 166 169 171 166 167 165 165 166 173 176 195 197 200 239 210 198 198 186 183 178 171 168 169 167 171 175 169 310 341 142 28 177 9 18 7 359 357 355 357 353 345
177 164 166 180 186 180 176 177 185 186 194 197 190 184 208 241 216 192 187 189 185 182 181 179 180 185 186 191 209 250 241 186 113 70 177 247 327 332 331 331 334 338 335 332
Wind_Speed_850mb
31 40 36 40 43 43 36 18 27 27 22 9 7 13 13 33 43 70 80 83 93 95 94 105 112 106 96 87 76 67 65 66 70 67 63 57 50 44 37 30 22 17 14 11
33 36 33 33 32 32 36 20 29 7 10 10 5 24 19 35 60 67 79 79 89 96 107 108 107 102 90 80 73 76 82 82 76 69 60 53 46 38 30 23 20 14 9 8
9 25 34 14 13 19 13 8 19 19 10 11 4 12 5 11 39 73 84 93 99 106 110 106 108 100 92 87 88 88 84 79 72 63 55 46 38 33 26 21 14 8 4 8
11 18 7 12 34 16 15 2 13 17 15 14 9 24 14 31 57 66 98 101 104 114 117 111 107 98 97 97 92 88 80 72 62 54 47 40 34 26 19 13 8 5 8 15
6 10 14 13 31 17 18 10 10 27 26 17 37 54 49 55 90 126 109 105 117 124 123 116 108 106 105 96 87 78 70 62 52 42 38 32 27 23 19 16 18 16 17 21
5 8 8 9 26 38 24 8 19 33 31 21 25 31 29 34 105 114 106 108 117 123 120 115 110 103 97 88 80 73 62 52 42 35 34 33 29 27 30 25 22 17 17 25
8 7 11 6 40 44 6 1 22 48 46 42 27 26 74 88 100 108 127 128 121 115 110 102 94 90 88 78 71 61 53 48 43 38 35 33 34 34 30 27 18 16 19 29
8 7 9 57 34 8 1 35 51 52 65 72 53 61 88 101 104 116 121 118 110 107 100 89 82 82 80 73 61 53 50 50 45 40 36 28 22 29 21 22 16 15 18 27
8 4 29 32 38 43 71 61 58 65 65 81 61 56 97 94 97 104 105 103 97 97 88 75 69 64 69 65 58 55 52 49 41 33 26 23 23 25 22 19 17 13 16 23
7 13 33 43 53 61 77 69 63 70 72 82 72 72 84 97 95 96 91 90 85 82 76 66 57 59 64 58 53 52 54 47 38 36 37 35 30 24 23 21 19 22 24 28
8 16 18 53 44 57 75 81 82 69 72 69 83 73 74 92 91 84 84 80 78 77 73 67 61 61 57 54 50 50 49 47 45 42 40 44 45 41 35 36 29 28 31 31
5 23 9 24 35 46 76 70 75 88 82 77 84 78 91 85 83 83 81 79 77 74 71 66 64 60 55 48 44 47 48 44 41 42 43 41 41 46 43 39 39 41 41 34
9 30 41 43 45 52 75 70 71 83 84 88 79 85 86 87 82 78 74 71 70 67 63 60 55 49 43 39 36 38 43 41 38 37 38 39 39 39 43 38 35 36 36 36
11 20 41 29 40 61 74 75 84 86 85 85 84 82 84 83 74 71 67 64 62 60 56 53 50 48 41 34 44 47 43 37 31 34 36 35 31 34 35 34 32 33 31 29
48 52 53 63 68 67 78 82 82 77 75 73 70 74 72 70 68 66 58 50 47 44 43 44 47 47 39 38 37 40 41 38 34 34 31 27 26 28 30 32 30 26 23 24
49 55 59 66 67 73 77 74 71 64 69 69 60 55 59 60 59 56 52 48 48 47 43 46 43 37 32 30 31 34 34 31 28 27 29 27 25 27 27 27 28 24 20 21
46 48 55 55 54 49 49 50 58 58 60 61 63 62 60 59 58 54 49 44 46 46 43 40 39 32 23 26 38 40 37 33 28 25 24 24 22 23 23 24 25 22 19 16
44 50 50 44 48 53 54 62 63 64 61 59 56 53 53 50 53 49 45 44 47 47 39 40 44 42 39 34 33 31 28 26 24 25 26 25 25 23 21 21 20 15 13 11
23 23 28 35 41 48 52 55 53 52 50 47 45 42 38 39 40 40 39 38 42 44 40 31 30 33 32 27 21 26 35 34 30 30 27 22 23 22 17 12 8 6 5 7
48 43 39 38 37 44 49 45 43 40 36 32 34 37 37 33 31 32 32 37 34 36 31 31 35 32 33 31 29 29 30 28 27 31 28 23 20 17 13 10 5 3 4 7
38 37 38 39 42 43 38 37 35 35 30 28 36 37 35 30 23 31 41 44 38 39 41 35 34 32 25 24 19 20 24 24 23 23 21 18 14 13 10 7 3 2 5 7
31 35 37 37 36 36 32 28 27 32 36 35 32 31 26 23 24 31 33 41 42 42 40 35 31 28 25 18 13 13 14 16 17 17 15 12 10 10 12 10 6 5 7 8
39 39 34 33 32 31 30 29 30 31 34 31 29 23 21 20 15 30 40 31 27 30 30 29 24 20 13 12 13 15 15 16 15 14 13 10 9 6 5 9 7 8 10 9
33 27 24 28 33 35 35 32 30 26 24 23 22 19 15 18 17 21 21 23 19 16 32 35 25 17 18 17 18 19 18 14 14 13 14 12 10 11 16 11 6 5 8 9
30 30 28 34 33 30 29 29 28 29 29 30 23 19 8 4 3 15 17 18 17 18 38 34 28 22 17 15 11 8 8 9 7 7 8 9 7 11 19 22 23 15 9 11
38 34 33 34 33 31 30 30 30 32 33 30 28 21 21 13 6 15 20 20 21 23 37 36 28 24 18 18 16 9 3 2 2 4 2 3 9 15 18 22 25 27 22 22
27 28 34 37 34 29 30 33 32 32 32 34 30 21 15 9 7 14 19 21 21 26 38 41 31 27 19 14 15 12 9 3 2 3 5 4 9 15 19 23 28 34 36 37
Wind_Direction_850mb
256 266 272 271 274 279 273 226 195 221 227 212 222 284 299 328 183 155 150 151 140 142 135 131 137 144 146 145 148 154 154 151 144 148 151 152 156 160 162 169 174 190 203 220
296 275 267 290 285 275 271 209 226 164 212 127 294 8 330 325 173 152 146 141 136 128 120 124 131 135 140 141 145 148 141 141 144 148 149 153 156 159 170 175 181 191 217 279
264 324 310 273 286 255 219 221 198 205 180 167 77 318 269 335 291 144 132 127 122 119 119 121 130 137 138 142 141 142 139 141 144 148 151 155 160 168 173 178 190 216 266 322
291 305 323 334 326 173 127 91 170 78 100 91 157 214 217 231 225 141 122 119 116 115 119 125 133 136 137 140 141 139 140 143 145 149 150 155 166 170 168 164 148 84 39 35
291 304 277 338 8 27 55 47 32 117 94 63 114 104 51 68 133 109 114 115 116 122 129 133 135 138 140 138 138 139 140 139 141 145 147 152 151 143 123 108 95 88 69 48
312 297 340 348 348 338 321 39 111 106 103 72 116 94 89 109 93 99 106 108 113 121 128 132 136 140 135 135 136 135 135 131 130 133 135 133 129 121 111 105 98 87 63 54
250 266 280 312 337 318 77 2 103 85 89 79 76 91 109 102 94 100 108 115 120 123 127 132 137 135 131 132 126 127 127 127 130 132 135 140 138 128 122 114 102 84 62 40
321 334 360 328 322 47 90 91 93 95 96 87 73 95 97 95 98 104 112 122 125 126 127 131 133 130 128 123 124 127 128 124 122 122 121 123 128 139 135 127 128 110 48 29
9 309 292 19 57 73 100 95 94 92 86 95 87 87 90 92 98 107 114 118 123 122 124 126 128 127 123 124 130 127 123 115 113 114 127 130 137 126 121 118 121 86 43 61
307 8 9 28 62 77 90 88 91 105 107 110 95 90 93 101 102 106 112 117 120 122 118 119 121 120 121 127 124 121 116 108 103 106 113 115 122 125 122 116 108 95 90 84
350 350 354 28 49 86 94 103 99 91 95 99 101 98 101 106 109 111 112 117 119 117 116 115 115 117 121 122 122 120 115 108 102 102 104 107 104 101 103 103 95 93 91 86
13 346 38 32 57 87 96 98 103 109 102 97 103 102 108 108 112 113 114 117 115 114 114 115 115 115 118 121 121 120 115 108 106 104 99 96 95 96 89 91 89 83 80 78
39 57 75 79 87 94 103 104 102 104 107 109 104 108 112 113 114 114 114 116 116 116 119 122 122 119 125 136 147 128 122 117 109 106 101 96 92 87 84 87 93 88 78 71
52 66 70 89 94 105 111 109 114 112 113 113 113 111 110 111 114 115 114 116 122 124 124 126 130 131 134 139 130 130 122 115 111 110 107 104 100 90 78 76 97 85 75 66
83 94 98 106 106 104 111 116 110 106 110 111 112 111 111 110 113 116 122 129 130 129 128 135 131 127 135 138 135 129 123 121 117 113 109 106 102 92 80 74 94 89 84 67
93 99 100 98 99 105 107 103 101 104 106 107 108 115 121 122 119 119 120 121 119 116 119 122 123 126 138 149 148 140 131 129 128 123 117 113 107 103 92 83 88 88 84 73
100 98 101 98 101 105 109 112 116 120 127 129 126 128 129 128 126 125 124 124 121 117 114 127 134 136 135 127 129 127 130 132 131 129 126 119 113 106 100 95 93 86 81 63
117 114 104 96 109 110 113 121 128 132 130 131 134 135 133 133 129 129 131 131 123 117 113 115 116 129 134 138 137 140 141 138 132 122 126 125 124 120 115 114 113 97 86 56
146 123 121 121 126 127 129 131 131 133 137 141 140 137 141 140 141 141 143 144 139 130 124 132 128 127 127 128 127 127 134 144 142 129 123 136 130 125 125 123 114 91 71 27
128 131 130 126 126 128 130 133 138 138 139 145 141 139 139 142 148 152 157 151 151 143 145 150 144 139 136 136 135 134 140 141 136 141 139 137 144 147 137 126 108 46 356 6
129 132 130 131 133 136 140 145 146 141 137 137 139 137 131 122 122 142 144 142 139 145 147 148 149 145 148 154 162 157 163 163 161 157 158 159 164 171 185 183 192 303 321 327
142 136 134 138 141 143 150 149 146 139 138 141 138 138 133 126 128 136 137 137 140 154 154 155 154 154 157 164 176 186 181 184 187 189 195 196 209 219 228 235 255 279 280 297
144 147 147 153 153 148 148 148 148 149 154 153 150 150 135 110 114 153 149 147 142 145 158 169 171 172 154 140 163 175 176 175 182 183 182 183 165 168 246 255 275 259 245 282
155 153 146 148 149 152 153 158 161 162 158 160 164 158 132 134 124 158 164 145 148 161 163 163 163 151 133 114 110 116 105 113 129 122 126 108 87 63 44 40 352 266 265 286
170 166 157 157 158 159 158 164 164 164 156 155 175 183 191 176 219 178 180 170 161 161 168 168 167 182 190 181 150 110 64 37 101 85 92 57 55 41 27 24 22 10 333 330
172 171 164 166 169 171 166 167 165 165 166 173 176 195 197 200 239 210 198 198 186 183 178 171 168 169 167 171 175 169 310 341 142 28 177 9 18 7 359 357 355 357 353 345
177 164 166 180 186 180 176 177 185 186 194 197 190 184 208 241 216 192 187 189 185 182 181 179 180 185 186 191 209 250 241 186 113 70 177 247 327 332 331 331 334 338 335 332